Tracking 35048 objects as of 19-Aug-2026
HD Live streaming from Space Station
objects crossing your sky now

COSMOS 1351 DEB


COSMOS 1351 DEB is no longer on orbit


NORAD ID: 13855
Int'l Code: 1982-034P
Launch date: April 21, 1982
Source: Commonwealth of Independent States (former USSR) (CIS)
Launch site: KAPUSTIN YAR MISSILE AND SPACE COMPLEX (KYMTR)
Decay date: 1983-02-26

Note: This is SATELLITE DEBRIS
Your satellite tracking list
Your tracking list is empty




NASA's NSSDC Master Catalog

Two Line Element Set (TLE):
1 13855U 82034  P 83056.43022600  .07439500 +06842-5 +08996-3 0  9996
2 13855 050.6771 019.9170 0009246 324.6963 035.0846 16.23015213048384
Source of the keplerian elements: AFSPC